Regional Weather Roundup
Issued by NWS

Home | Current Version | Previous Version | Graphics & Text | Print | Product List | Glossary On
Versions: 1 2 3 4 5 6 7 8 9 10 11 12 13 14 15 16 17 18 19 20 21 22 23 24 25 26 27
000
ASUS45 KCYS 260010
RWRWY

WYOMING REGIONAL WEATHER ROUNDUP
NATIONAL WEATHER SERVICE CHEYENNE WY
600 PM MDT THU AUG 25 2016

NOTE:  "FAIR" INDICATES FEW OR NO CLOUDS BELOW 12,000 FEET
WITH NO SIGNIFICANT WEATHER AND/OR OBSTRUCTIONS TO VISIBILITY.

WYZ001-260100-
YELLOWSTONE NATIONAL PARK

CITY           SKY/WX    TMP DP  RH WIND       PRES   REMARKS
LK YELLOWSTONE   N/A     59  30  33 CALM      30.23F
6HR MIN TEMP:  52; 6HR MAX TEMP:  60;

W YELLOWSTONE  NOT AVBL

$$
WYZ002>013-054>058-071-098>099-260100-
NORTHERN WYOMING

CITY           SKY/WX    TMP DP  RH WIND       PRES   REMARKS
JACKSON        PTSUNNY   66  28  24 NW7       30.16S
CODY           CLOUDY    63  37  39 E9        30.18S
GREYBULL       FAIR      70  35  27 W5        30.13S
6HR MIN TEMP:  61; 6HR MAX TEMP:  71;

WORLAND        FAIR      68  42  38 N3        30.15R
6HR MIN TEMP:  60; 6HR MAX TEMP:  71;

SHERIDAN       FAIR      68  41  37 S8        30.16F
6HR MIN TEMP:  63; 6HR MAX TEMP:  70;

BUFFALO        FAIR      62  41  46 SE10      30.22F
6HR MIN TEMP:  58; 6HR MAX TEMP:  64;

GILLETTE       PTSUNNY   65  38  36 CALM      30.19F
6HR MIN TEMP:  57; 6HR MAX TEMP:  66;

HULETT         FAIR      64  36  34 N3        30.21F
NEWCASTLE      FAIR      66  36  32 S5        30.22F

$$
WYZ014>020-022>026-101>103-260100-
CENTRAL WYOMING

CITY           SKY/WX    TMP DP  RH WIND       PRES   REMARKS
BIG PINEY      FAIR      55  41  59 N18G25    30.23R
6HR MIN TEMP:  51; 6HR MAX TEMP:  68; 6HR PCP:  0.07;

PINEDALE       CLOUDY    59  27  29 E7        30.25R
DUBOIS         CLOUDY    54  32  43 CALM      30.23F
LANDER         FAIR      66  43  43 NW8       30.18S
6HR MIN TEMP:  58; 6HR MAX TEMP:  67;

RIVERTON       FAIR      62  44  51 N10       30.19S
6HR MIN TEMP:  56; 6HR MAX TEMP:  66;

CASPER         FAIR      63  46  54 E14       30.20F
6HR MIN TEMP:  57; 6HR MAX TEMP:  65;

DOUGLAS        FAIR      62  43  49 SE7       30.22F
6HR MIN TEMP:  52; 6HR MAX TEMP:  64;


$$
WYZ021-027>030-104>119-260100-
SOUTHERN WYOMING

CITY           SKY/WX    TMP DP  RH WIND       PRES   REMARKS
EVANSTON       FAIR      68  20  16 W8        30.17F
6HR MIN TEMP:  56; 6HR MAX TEMP:  71;

FORT BRIDGER   MOCLDY    68  25  20 CALM      30.22S
ROCK SPRINGS   FAIR      66  31  27 S14       30.19F
6HR MIN TEMP:  61; 6HR MAX TEMP:  71;

DIXON          FAIR      70  29  21 W7        30.20S
RAWLINS        FAIR      66  32  28 NE12      30.21S
6HR MIN TEMP:  60; 6HR MAX TEMP:  70;

SARATOGA       FAIR      64  37  36 NE10G18   30.21F
LARAMIE        FAIR      60  36  40 S15       30.24F
6HR MIN TEMP:  59; 6HR MAX TEMP:  65;

CHEYENNE       FAIR      67  38  34 S15       30.22F
6HR MIN TEMP:  57; 6HR MAX TEMP:  69; 6HR PCP: TRACE;

TORRINGTON     FAIR      68  43  40 E9        30.19F
6HR MIN TEMP:  62; 6HR MAX TEMP:  72;

PINE BLUFFS    FAIR      70  36  28 SE12G18   30.21F

$$




USA.gov is the U.S. government's official web portal to all federal, state and local government web resources and services.